2023/08/13 00:00:00, 0.2,23.3
2023/08/13 00:10:00, 0.2,23.4
2023/08/13 00:20:00, 0.2,23.2
2023/08/13 00:30:00, 0.2,23.3
2023/08/13 00:40:00, 0.2,23.3
2023/08/13 00:50:00, 0.2,23.2
2023/08/13 01:00:00, 0.2,23.1
2023/08/13 01:10:00, 0.2,23.0
2023/08/13 01:20:00, 0.2,23.2
2023/08/13 01:30:00, 0.2,22.7
2023/08/13 01:40:00, 0.2,22.6
2023/08/13 01:50:00, 0.2,22.5
2023/08/13 02:00:00, 0.2,22.5
2023/08/13 02:10:00, 0.2,22.3
2023/08/13 02:20:00, 0.2,22.1
2023/08/13 02:30:00, 0.2,22.0
2023/08/13 02:40:00, 0.2,22.1
2023/08/13 02:50:00, 0.2,22.2
2023/08/13 03:00:00, 0.2,21.9
2023/08/13 03:10:00, 0.2,21.8
2023/08/13 03:20:00, 0.2,21.5
2023/08/13 03:30:00,---,21.8
2023/08/13 03:40:00, 5.9,21.5
2023/08/13 03:50:00, 6.3,21.6
2023/08/13 04:00:00, 6.7,21.5
2023/08/13 04:10:00, 6.8,21.3
2023/08/13 04:20:00, 3.0,21.4
2023/08/13 04:30:00, 0.2,21.2
2023/08/13 04:40:00, 0.2,21.2
2023/08/13 04:50:00, 0.5,21.2
2023/08/13 05:00:00, 0.2,21.5
2023/08/13 05:10:00, 0.2,21.4
2023/08/13 05:20:00, 0.2,21.3
2023/08/13 05:30:00, 0.2,21.3
2023/08/13 05:40:00, 0.2,21.2
2023/08/13 05:50:00, 0.2,21.5
2023/08/13 06:00:00, 0.2,21.2
2023/08/13 06:10:00, 0.2,22.2
2023/08/13 06:20:00, 0.2,22.8
2023/08/13 06:30:00, 2.7,23.5
2023/08/13 06:40:00, 4.9,24.2
2023/08/13 06:50:00, 4.7,24.6
2023/08/13 07:00:00, 5.7,25.1
2023/08/13 07:10:00, 5.9,25.6
2023/08/13 07:20:00, 6.1,26.4
2023/08/13 07:30:00, 6.2,26.6
2023/08/13 07:40:00, 6.3,27.4
2023/08/13 07:50:00, 6.3,27.8
2023/08/13 08:00:00, 6.6,28.2
2023/08/13 08:10:00, 6.9,28.0
2023/08/13 08:20:00, 7.1,28.9
2023/08/13 08:30:00, 7.3,32.0
2023/08/13 08:40:00, 7.5,30.1
2023/08/13 08:50:00, 7.6,31.6
2023/08/13 09:00:00, 7.9,31.8
2023/08/13 09:10:00, 8.4,32.4
2023/08/13 09:20:00, 8.5,32.8
2023/08/13 09:30:00, 8.8,32.4
2023/08/13 09:40:00, 9.0,32.2
2023/08/13 09:50:00, 7.3,30.4
2023/08/13 10:00:00, 7.3,30.2
2023/08/13 10:10:00, 7.3,30.7
2023/08/13 10:20:00, 5.1,31.2
2023/08/13 10:30:00, 7.0,31.9
2023/08/13 10:40:00, 9.0,32.4
2023/08/13 10:50:00, 8.1,32.3
2023/08/13 11:00:00, 8.7,32.6
2023/08/13 11:10:00, 9.1,32.7
2023/08/13 11:20:00, 8.4,32.7
2023/08/13 11:30:00, 7.0,32.3
2023/08/13 11:40:00, 6.5,32.5
2023/08/13 11:50:00, 6.3,32.2
2023/08/13 12:00:00, 6.2,33.2
2023/08/13 12:10:00, 5.8,32.6
2023/08/13 12:20:00, 5.9,31.6
2023/08/13 12:30:00, 5.8,32.5
2023/08/13 12:40:00, 5.9,32.8
2023/08/13 12:50:00, 5.8,33.4
2023/08/13 13:00:00, 5.1,33.0
2023/08/13 13:10:00, 5.3,34.6
2023/08/13 13:20:00, 5.3,34.3
2023/08/13 13:30:00, 5.1,34.2
2023/08/13 13:40:00, 4.8,33.9
2023/08/13 13:50:00, 4.7,32.0
2023/08/13 14:00:00, 4.9,32.0
2023/08/13 14:10:00, 4.7,33.8
2023/08/13 14:20:00, 4.6,33.6
2023/08/13 14:30:00, 4.9,33.4
2023/08/13 14:40:00, 4.9,33.5
2023/08/13 14:50:00, 4.4,33.4
2023/08/13 15:00:00, 4.6,33.5
2023/08/13 15:10:00, 4.8,33.4
2023/08/13 15:20:00, 4.8,33.8
2023/08/13 15:30:00, 4.9,33.4
2023/08/13 15:40:00, 4.7,33.0
2023/08/13 15:50:00, 4.7,33.2
2023/08/13 16:00:00, 4.9,32.5
2023/08/13 16:10:00, 5.3,31.8
2023/08/13 16:20:00, 5.4,31.4
2023/08/13 16:30:00, 5.5,29.9
2023/08/13 16:40:00, 5.7,31.2
2023/08/13 16:50:00, 5.9,33.7
2023/08/13 17:00:00, 6.1,32.5
2023/08/13 17:10:00, 6.1,29.9
2023/08/13 17:20:00, 6.3,29.6
2023/08/13 17:30:00, 6.3,29.1
2023/08/13 17:40:00, 6.2,29.1
2023/08/13 17:50:00, 6.3,29.2
2023/08/13 18:00:00, 6.2,28.2
2023/08/13 18:10:00, 6.0,27.7
2023/08/13 18:20:00, 3.8,27.3
2023/08/13 18:30:00, 1.8,27.0
2023/08/13 18:40:00, 0.5,26.9
2023/08/13 18:50:00, 0.3,26.7
2023/08/13 19:00:00, 0.2,26.4
2023/08/13 19:10:00, 0.3,26.1
2023/08/13 19:20:00, 0.2,25.8
2023/08/13 19:30:00, 0.3,25.6
2023/08/13 19:40:00, 0.2,25.4
2023/08/13 19:50:00, 0.2,25.4
2023/08/13 20:00:00, 0.2,24.8
2023/08/13 20:10:00, 0.2,24.9
2023/08/13 20:20:00, 0.2,24.4
2023/08/13 20:30:00, 0.2,24.3
2023/08/13 20:40:00, 0.2,24.1
2023/08/13 20:50:00, 0.2,24.1
2023/08/13 21:00:00, 0.5,23.5
2023/08/13 21:10:00, 4.6,23.9
2023/08/13 21:20:00, 7.1,23.7
2023/08/13 21:30:00, 6.9,23.7
2023/08/13 21:40:00, 5.6,23.8
2023/08/13 21:50:00, 1.8,23.7
2023/08/13 22:00:00, 5.3,23.5
2023/08/13 22:10:00, 4.1,23.5
2023/08/13 22:20:00, 0.2,23.6
2023/08/13 22:30:00, 0.2,23.7
2023/08/13 22:40:00, 0.2,23.3
2023/08/13 22:50:00, 0.2,23.2
2023/08/13 23:00:00, 0.2,23.1
2023/08/13 23:10:00, 0.2,23.6
2023/08/13 23:20:00, 0.2,23.4
2023/08/13 23:30:00, 0.2,23.3
2023/08/13 23:40:00, 0.2,23.3
2023/08/13 23:50:00, 0.2,23.0
